| time (UTC) | temp F | wind direction | speed MPH | gust MPH | rain 1hr in | rain 24hr in | rain mn in | humidity % | barometer mb |
| 20260502151516 | 56 | 340 | 0.0 | 4.0 | 0.00 | 0.00 | 0.00 | 49 | 1015.0 |
| 20260502121505 | 50 | 349 | 1.0 | 4.0 | 0.00 | 0.00 | 0.00 | 71 | 1014.2 |
| 20260502114504 | 49 | 327 | 0.0 | 0.0 | 0.00 | 0.00 | 0.00 | 78 | 1014.0 |
| 20260502111502 | 49 | 326 | 0.0 | 1.0 | 0.00 | 0.00 | 0.00 | 81 | 1014.1 |
| 20260502110002 | 48 | 15 | 0.0 | 5.0 | 0.00 | 0.00 | 0.00 | 82 | 1014.2 |
| 20260502104500 | 48 | 346 | 0.0 | 3.0 | 0.00 | 0.00 | 0.00 | 84 | 1014.0 |
| 20260502101604 | 47 | 5 | 0.0 | 0.0 | 0.00 | 0.00 | 0.00 | 87 | 1013.7 |
| 20260502070045 | 49 | 234 | 0.0 | 0.0 | 0.00 | 0.00 | 0.00 | 84 | 1012.7 |
| 20260502064546 | 50 | 234 | 0.0 | 0.0 | 0.00 | 0.00 | 0.00 | 83 | 1012.8 |
| 20260502061539 | 51 | 234 | 0.0 | 0.0 | 0.00 | 0.00 | 0.00 | 81 | 1012.9 |
| 20260502060037 | 52 | 234 | 0.0 | 0.0 | 0.00 | 0.00 | 0.00 | 80 | 1012.9 |
| 20260502054535 | 52 | 234 | 0.0 | 0.0 | 0.00 | 0.00 | 0.00 | 79 | 1013.1 |
| 20260502051534 | 53 | 234 | 0.0 | 0.0 | 0.00 | 0.00 | 0.00 | 76 | 1013.1 |
| 20260502050034 | 54 | 234 | 0.0 | 0.0 | 0.00 | 0.00 | 0.00 | 74 | 1012.8 |
| 20260502044526 | 54 | 203 | 0.0 | 0.0 | 0.00 | 0.00 | 0.00 | 73 | 1012.8 |
| 20260502041527 | 55 | 248 | 0.0 | 1.0 | 0.00 | 0.00 | 0.00 | 71 | 1012.8 |
| 20260502040022 | 55 | 255 | 0.0 | 5.0 | 0.00 | 0.00 | 0.00 | 70 | 1012.8 |
| 20260502034522 | 56 | 181 | 0.0 | 1.0 | 0.00 | 0.00 | 0.00 | 69 | 1012.7 |
| 20260502031517 | 56 | 138 | 0.0 | 0.0 | 0.00 | 0.00 | 0.00 | 67 | 1012.6 |
| 20260502030024 | 57 | 138 | 0.0 | 1.0 | 0.00 | 0.00 | 0.00 | 65 | 1012.4 |
| 20260502024513 | 57 | 164 | 0.0 | 4.0 | 0.00 | 0.00 | 0.00 | 64 | 1012.2 |
| 20260502021511 | 57 | 182 | 0.0 | 2.0 | 0.00 | 0.00 | 0.00 | 60 | 1012.3 |
| 20260502020008 | 57 | 197 | 0.0 | 0.0 | 0.00 | 0.00 | 0.00 | 58 | 1012.2 |
| 20260502014506 | 58 | 198 | 0.0 | 1.0 | 0.00 | 0.00 | 0.00 | 57 | 1012.2 |
| 20260502011600 | 59 | 204 | 0.0 | 0.0 | 0.00 | 0.00 | 0.00 | 55 | 1011.8 |
| 20260502010106 | 59 | 204 | 0.0 | 1.0 | 0.00 | 0.00 | 0.00 | 55 | 1011.7 |
| 20260502004604 | 59 | 215 | 0.0 | 1.0 | 0.00 | 0.00 | 0.00 | 54 | 1011.4 |
| 20260502003151 | 60 | 201 | 0.0 | 0.0 | 0.00 | 0.00 | 0.00 | 53 | 1011.0 |
| 20260502001548 | 61 | 140 | 0.0 | 0.0 | 0.00 | 0.00 | 0.00 | 50 | 1011.1 |
| 20260502000045 | 62 | 140 | 0.0 | 1.0 | 0.00 | 0.00 | 0.00 | 48 | 1011.0 |
| 20260501234542 | 63 | 343 | 0.0 | 0.0 | 0.00 | 0.00 | 0.00 | 47 | 1010.9 |
| 20260501233139 | 64 | 343 | 0.0 | 0.0 | 0.00 | 0.00 | 0.00 | 46 | 1010.8 |
| 20260501231537 | 64 | 343 | 0.0 | 1.0 | 0.00 | 0.00 | 0.00 | 43 | 1010.8 |
| 20260501230035 | 65 | 196 | 0.0 | 4.0 | 0.00 | 0.00 | 0.00 | 42 | 1010.8 |
| 20260501224530 | 65 | 129 | 0.0 | 3.0 | 0.00 | 0.00 | 0.00 | 40 | 1010.9 |
| 20260501223127 | 66 | 192 | 0.0 | 7.0 | 0.00 | 0.00 | 0.00 | 36 | 1011.0 |
| 20260501221527 | 67 | 221 | 0.0 | 5.0 | 0.00 | 0.00 | 0.00 | 36 | 1011.1 |
| 20260501220124 | 67 | 193 | 0.0 | 2.0 | 0.00 | 0.00 | 0.00 | 36 | 1011.2 |
| 20260501214522 | 69 | 188 | 0.0 | 5.0 | 0.00 | 0.00 | 0.00 | 34 | 1011.3 |
| 20260501213124 | 70 | 136 | 0.0 | 1.0 | 0.00 | 0.00 | 0.00 | 33 | 1011.3 |
| 20260501211527 | 69 | 229 | 0.0 | 4.0 | 0.00 | 0.00 | 0.00 | 34 | 1011.4 |
| 20260501210036 | 70 | 138 | 0.0 | 5.0 | 0.00 | 0.00 | 0.00 | 33 | 1011.4 |
| 20260501204525 | 70 | 301 | 1.0 | 5.0 | 0.00 | 0.00 | 0.00 | 31 | 1011.5 |
| 20260501203122 | 71 | 208 | 1.0 | 6.0 | 0.00 | 0.00 | 0.00 | 33 | 1011.6 |
| 20260501201523 | 71 | 161 | 0.0 | 3.0 | 0.00 | 0.00 | 0.00 | 32 | 1011.8 |
| 20260501200021 | 72 | 216 | 0.0 | 3.0 | 0.00 | 0.00 | 0.00 | 30 | 1012.1 |
| 20260501194525 | 72 | 317 | 0.0 | 3.0 | 0.00 | 0.00 | 0.00 | 31 | 1012.5 |
| 20260501193124 | 71 | 275 | 0.0 | 3.0 | 0.00 | 0.00 | 0.00 | 29 | 1012.6 |
| 20260501191517 | 71 | 137 | 0.0 | 7.0 | 0.00 | 0.00 | 0.00 | 31 | 1013.0 |
| 20260501190018 | 71 | 101 | 0.0 | 3.0 | 0.00 | 0.00 | 0.00 | 31 | 1013.3 |
| 20260501184514 | 70 | 244 | 0.0 | 7.0 | 0.00 | 0.00 | 0.00 | 31 | 1013.5 |
| 20260501183114 | 70 | 138 | 1.0 | 5.0 | 0.00 | 0.00 | 0.00 | 31 | 1013.8 |
| 20260501181513 | 70 | 98 | 1.0 | 8.0 | 0.00 | 0.00 | 0.00 | 32 | 1014.1 |
| 20260501180011 | 69 | 173 | 0.0 | 5.0 | 0.00 | 0.00 | 0.00 | 32 | 1014.1 |
| 20260501174510 | 68 | 31 | 0.0 | 3.0 | 0.00 | 0.00 | 0.00 | 32 | 1014.2 |
| 20260501173109 | 68 | 67 | 0.0 | 5.0 | 0.00 | 0.00 | 0.00 | 33 | 1014.4 |
| 20260501171507 | 67 | 194 | 0.0 | 2.0 | 0.00 | 0.00 | 0.00 | 36 | 1014.6 |
| 20260501170008 | 67 | 137 | 0.0 | 2.0 | 0.00 | 0.00 | 0.00 | 35 | 1014.9 |
| 20260501164508 | 66 | 212 | 0.0 | 3.0 | 0.00 | 0.00 | 0.00 | 35 | 1015.0 |
| 20260501163104 | 65 | 179 | 0.0 | 3.0 | 0.00 | 0.00 | 0.00 | 37 | 1015.3 |
| 20260501161515 | 65 | 191 | 0.0 | 3.0 | 0.00 | 0.00 | 0.00 | 37 | 1015.5 |